Flagstaff, AZ

9:36 AM MST on February 13, 2016 (GMT -0700)
Flagstaff Pulliam

Weather History for KFLG - September, 2011

Change the Weather History Date:

Thursday, September 22, 2011

  Actual Average Record
Temperature  
Mean Temperature 59 °F 55 °F  
Max Temperature 78 °F 71 °F 83 °F (1949)
Min Temperature 39 °F 40 °F 20 °F (1912)
Degree Days  
Heating Degree Days 6 10  
Month to date heating degree days 124 139  
Since 1 July heating degree days 150 227  
Cooling Degree Days 0 0  
Month to date cooling degree days 5 0  
Year to date cooling degree days 170 114  
Growing Degree Days 9 (Base 50)    
Moisture  
Dew Point 31 °F    
Average Humidity 47    
Maximum Humidity 79    
Minimum Humidity 15    
Precipitation  
Precipitation 0.00 in 0.08 in 1.03 in (1958)
Month to date precipitation 3.34 1.83  
Year to date precipitation 14.68 16.02  
Snow  
Snow 0.00 in 0.00 in 0.00 in (2002)
Month to date snowfall 0.0 0.0  
Since 1 July snowfall 0.0 0.0  
Snow Depth 0.00 in    
Sea Level Pressure  
Sea Level Pressure 30.13 in    
Wind  
Wind Speed 2 mph (East)    
Max Wind Speed 13 mph    
Max Gust Speed 21 mph    
Visibility 10 miles    
Events      
T = Trace of Precipitation, MM = Missing Value Source: NWS Daily Summary

Daily Weather History Graph

Daily Weather History Graph

Search for Another Location

Airport or City:

Trip Planner

Search our weather history database for the weather conditions in past years. The results will help you decide how hot, cold, wet, or windy it might be!

Date:

Astronomy

Sep. 22, 2011 Rise Set
Actual Time 6:14 AM MST 6:23 PM MST
Civil Twilight 5:49 AM MST 6:49 PM MST
Nautical Twilight 5:19 AM MST 7:18 PM MST
Astronomical Twilight 4:49 AM MST 7:48 PM MST
Moon 12:50 AM MST (9/22) 3:08 PM MST (9/22)
Length of Visible Light 12h 59m
Length of Day
12h 09m
Waning Crescent, 27% of the Moon is Illuminated
Sep 22
Waning Crescent
Sep 27
New
Oct 3
First Quarter
Oct 11
Full
Oct 19
Last Quarter

Hourly Weather History & Observations

Time (MST) Temp. Dew Point Humidity Pressure Visibility Wind Dir Wind Speed Gust Speed Precip Events Conditions
12:57 AM 43.0 °F 36.0 °F 76% 30.08 in 10.0 mi Calm Calm - N/A   Clear
1:57 AM 41.0 °F 36.0 °F 82% 30.09 in 10.0 mi Calm Calm - N/A   Clear
2:57 AM 42.1 °F 36.0 °F 79% 30.10 in 10.0 mi Calm Calm - N/A   Clear
3:57 AM 41.0 °F 35.1 °F 79% 30.10 in 10.0 mi Calm Calm - N/A   Clear
4:57 AM 41.0 °F 35.1 °F 79% 30.08 in 10.0 mi Calm Calm - N/A   Clear
9:57 AM 71.1 °F 37.9 °F 30% 30.14 in 10.0 mi NNE 4.6 mph - N/A   Clear
10:57 AM 75.0 °F 25.0 °F 16% 30.13 in 10.0 mi Calm Calm - N/A   Clear
11:57 AM 75.0 °F 27.0 °F 17% 30.12 in 10.0 mi East 6.9 mph - N/A   Clear
12:57 PM 73.9 °F 30.9 °F 21% 30.13 in 10.0 mi ENE 6.9 mph - N/A   Scattered Clouds
1:57 PM 75.9 °F 28.9 °F 18% 30.11 in 10.0 mi East 9.2 mph 19.6 mph N/A   Partly Cloudy
2:57 PM 77.0 °F 27.0 °F 16% 30.09 in 10.0 mi ESE 9.2 mph 18.4 mph N/A   Unknown
3:57 PM 75.0 °F 26.1 °F 16% 30.11 in 10.0 mi SE 6.9 mph - N/A   Clear
4:57 PM 73.9 °F 25.0 °F 16% 30.11 in 10.0 mi East 5.8 mph - N/A   Clear
5:57 PM 71.1 °F 25.0 °F 18% 30.14 in 10.0 mi East 4.6 mph - N/A   Clear
6:57 PM 60.1 °F 32.0 °F 35% 30.18 in 10.0 mi Calm Calm - N/A   Clear
7:57 PM 53.1 °F 30.9 °F 43% 30.18 in 10.0 mi Calm Calm - N/A   Clear
8:57 PM 50.0 °F 30.9 °F 48% 30.17 in 10.0 mi Calm Calm - N/A   Clear
9:57 PM 48.0 °F 30.9 °F 52% 30.16 in 10.0 mi Calm Calm - N/A   Clear
10:57 PM 45.0 °F 30.9 °F 58% 30.16 in 10.0 mi Calm Calm - N/A   Clear
11:57 PM 44.1 °F 30.0 °F 58% 30.16 in 10.0 mi Calm Calm - N/A   Clear